Location: Azul
(36.7830°S, 59.8500°W)
Time: 23:29:06
(UTC-03:00)

DELFI C3 - Pass Details

Date: 30 October 2021
Orbit: 529 x 543 km, 97.4° (Epoch: 30 November)

Event Time Altitude Azimuth Distance (km) Brightness Sun altitude
Rises 20:34:11 0° 163° (SSE) 2,731 ? -12.5°
Reaches altitude 10° 20:36:23 10° 157° (SSE) 1,827 ? -12.9°
Maximum altitude 20:40:13 48° 81° (E) 712 ? -13.5°
Drops below altitude 10° 20:43:59 10° 5° (N) 1,791 ? -14.2°
Enters shadow 20:44:15 - 4° (N) 1,901 ? -14.2°
